Simultaneous Nadir Overpasses (SNOs) Predictions

Prediction of SNOs between NPP and GCOM-C Satellite Orbit:

Table of predicted SNOs for the next 14.0 days since TLE Epoch: 2/12/2022
Index Date (NPP) Time (NPP) Lat,Lon (NPP) SZA (NPP ) Date (GCOM-C) Time (GCOM-C) Lat,Lon (GCOM-C) SZA (GCOM-C ) Distance(km) Time Diff (sec)
1 02/23/2022 13:05:41 -69.47, 160.87 100.82 02/23/2022 13:06:50 -69.42, 162.68 100.93 70.88 69
2 02/23/2022 13:56:16 68.88, -31.00 78.55 02/23/2022 13:57:28 68.83, -30.76 78.48 11.49 72
3 02/23/2022 14:46:57 -68.72, 136.52 101.62 02/23/2022 14:48:00 -68.73, 136.49 101.63 1.26 63
4 02/23/2022 15:37:43 68.72, -56.17 78.37 02/23/2022 15:38:27 68.72, -56.13 78.36 1.39 44
5 02/23/2022 16:28:26 -68.68, 111.21 101.70 02/23/2022 16:28:58 -68.67, 111.18 101.70 1.13 32
6 02/23/2022 17:19:12 68.67, -81.48 78.29 02/23/2022 17:19:25 68.67, -81.44 78.28 1.59 13
7 02/23/2022 18:09:55 -68.63, 85.90 101.78 02/23/2022 18:09:56 -68.62, 85.88 101.78 1.07 1
8 02/23/2022 19:00:41 68.62,-106.79 78.21 02/23/2022 19:00:23 68.62,-106.75 78.20 1.86 18
9 02/23/2022 19:51:24 -68.58, 60.59 101.85 02/23/2022 19:50:54 -68.57, 60.57 101.86 1.12 30
10 02/23/2022 20:42:10 68.57,-132.10 78.13 02/23/2022 20:41:21 68.56,-132.05 78.13 2.18 49
11 02/23/2022 21:32:53 -68.53, 35.28 101.93 02/23/2022 21:31:52 -68.52, 35.27 101.93 1.28 61
12 02/23/2022 22:23:35 68.31,-157.13 77.83 02/23/2022 22:22:22 68.35,-157.57 77.90 18.54 73
13 02/23/2022 23:14:11 -67.89, 10.72 102.62 02/23/2022 23:13:01 -67.87, 9.21 102.58 63.19 70



Historial Predications of SNOs between NPP and GCOM-C
